Location: Camden Lake
(44.4269°N, 76.8469°W)
Time: 20:09:53
(UTC-04:00)

Daily predictions for brighter satellites

Satellite Brightness Start Highest point End
(mag) Time Altitude Azimuth Time Altitude Azimuth Time Altitude Azimuth
Lacrosse 5 rocket 4.1 21:12:21 10° NW 21:15:25 17° N 21:18:30 10° NE
SAR-Lupe-4 3.6 21:13:17 10° SSE 21:16:52 90° SSE 21:20:29 10° NNW
Cosmos 2082 Rocket 3.4 21:13:01 10° SSE 21:17:14 22° E 21:21:27 10° NE
Cosmos 2278 4.3 21:11:52 10° NNW 21:17:23 46° ENE 21:22:49 10° SE
COSMOS 2406 3.9 21:14:57 10° SW 21:20:37 62° WNW 21:26:17 10° NNE
Terra 4.1 21:20:01 10° ENE 21:20:44 10° ENE 21:21:27 10° NE
Cosmos 1743 4.1 21:18:45 10° NNW 21:22:24 39° W 21:26:04 10° SSW
Okean 1-7 Rocket 3.6 21:19:29 10° S 21:23:55 70° E 21:28:26 10° NNE
YAOGAN 6 2.5 21:20:54 10° SSE 21:24:22 66° ENE 21:27:52 10° N
Cosmos 1606 Rocket 3.9 21:21:50 10° N 21:26:01 46° ENE 21:30:11 10° SSE
Okean 2 3.6 21:22:44 10° SSE 21:26:40 49° E 21:30:38 10° NNE
Meteor 1-15 Rocket 4.2 21:25:50 10° N 21:31:26 75° ENE 21:37:00 10° SSE
Cosmos 1025 Rocket 2.9 21:27:44 10° S 21:31:59 76° E 21:36:15 10° NNE
Cosmos 1656 4.3 21:26:49 10° NNW 21:32:00 42° ENE 21:37:02 11° SE
SPOT 5 3.6 21:28:13 10° SE 21:32:03 32° ENE 21:35:57 10° N
Cosmos 1697 Rocket 3.7 21:27:49 10° N 21:32:52 32° NE 21:37:52 10° ESE
CZ-4B DEB 3.3 21:30:11 10° S 21:33:06 52° W 21:36:02 10° NNW
SAR-Lupe-1 4.4 21:29:35 10° S 21:33:08 67° WSW 21:36:44 10° NNW
Cosmos 1726 Rocket 3.9 21:30:45 10° N 21:34:57 48° ENE 21:39:07 10° SSE
MOS 1-B Rocket 4.3 21:29:40 10° SE 21:35:25 58° ENE 21:42:02 10° N
Cosmos 2341 Rocket 4.3 21:29:33 10° N 21:35:49 57° ENE 21:42:05 10° SSE
Cosmos 405 3.5 21:33:21 10° NNW 21:36:53 58° W 21:40:21 10° S
Cosmos 2369 3.9 21:32:20 10° NNW 21:38:04 65° ENE 21:43:25 12° SE
Cosmos 1666 4.2 21:36:20 10° NNW 21:39:48 36° W 21:43:14 10° SSW
Cosmos 1452 Rocket 4.3 21:35:14 10° N 21:40:11 39° ENE 21:44:39 12° SE
SL-16 R/B 4.5 21:39:47 10° NNE 21:41:45 12° NE 21:43:42 10° ENE
COSMOS 2487 3.1 21:38:54 10° S 21:42:11 36° ESE 21:45:29 10° NE
MetOp-A 4.2 21:41:28 10° SSE 21:46:46 68° ENE 21:52:06 10° N
ERS-1 Rocket 3.0 21:41:57 10° SSE 21:46:58 88° ENE 21:52:02 10° NNW
USA 245 3.4 21:47:19 17° ESE 21:48:30 25° ENE 21:50:27 10° NNE
Cosmos 1833 Rocket 3.2 21:44:56 10° S 21:50:01 37° ESE 21:55:08 10° NE
Cosmos 1238 Rocket 4.5 21:45:12 10° SSW 21:51:55 69° W 21:58:11 10° N
ISS -2.2 21:49:01 10° W 21:52:09 38° NNW 21:55:17 10° NE
SPOT 1/Viking Rocket 4.2 21:49:30 13° SE 21:53:41 42° ENE 21:58:31 10° N
Cosmos 2058 Rocket 3.2 21:50:28 10° N 21:54:51 58° E 21:58:31 14° SSE
Iridium 43 4.4 21:58:05 10° NNE 22:00:07 30° E 22:00:46 25° ESE
Cosmos 1295 Rocket 4.5 21:57:18 10° N 22:03:32 76° E 22:09:16 13° SSE
Cosmos 1437 Rocket 3.5 22:01:34 10° NNW 22:05:18 49° W 22:09:05 10° S
YAOGAN 11 4.0 22:02:03 15° SSE 22:05:35 79° ENE 22:09:57 10° N
USA 229 DEB 4.4 21:59:14 10° NNW 22:06:08 48° NE 22:12:17 14° ESE
Cosmos 2181 Rocket 4.0 21:59:51 10° S 22:06:11 73° E 22:12:26 10° NNE
USA 229 4.4 21:59:21 10° NNW 22:06:13 48° NE 22:12:23 14° ESE
ASTEX 1 4.2 22:02:32 10° SSW 22:07:16 49° W 22:12:02 10° NNW
Cosmos 1066 Rocket 4.4 22:06:49 12° SSE 22:11:42 53° E 22:17:12 10° NNE
Cosmos 1515 3.9 22:10:04 10° SSW 22:13:50 70° W 22:17:40 10° N
H-2A R/B 3.5 22:11:41 16° ESE 22:14:16 27° ENE 22:18:05 10° N
Cosmos 1980 Rocket 2.8 22:16:44 10° NNW 22:22:12 46° ENE 22:25:49 20° ESE
Cosmos 1626 Rocket 3.9 22:21:47 23° SSE 22:24:08 45° E 22:28:16 10° NNE
ARGOS 3.3 22:20:51 15° S 22:25:18 76° WSW 22:30:46 10° NNW
Cosmos 2228 3.3 22:28:37 10° NNW 22:32:53 64° W 22:35:48 19° S
TELKOM 3 4.3 22:31:14 10° W 22:33:30 34° SSW 22:33:54 33° S
Cosmos 921 Rocket 4.2 22:29:33 10° NNW 22:33:41 37° W 22:37:02 14° SSW
Cosmos 2322 Rocket 3.8 22:29:07 10° N 22:33:42 24° NE 22:37:39 12° E
Cosmos 1953 4.2 22:31:16 10° NNE 22:34:09 18° ENE 22:35:24 16° E
Tiangong 2 1.1 22:35:35 10° W 22:38:44 58° S 22:39:22 46° SE
SL-8 Rocket 4.1 22:33:04 10° N 22:39:20 78° W 22:44:11 18° S
H-2A R/B 2.0 22:38:01 23° S 22:41:09 84° WSW 22:46:16 10° NNW
Cosmos 1766 3.5 22:37:24 10° N 22:41:15 53° E 22:42:36 34° SE
Landsat 7 3.8 22:40:01 27° SSE 22:42:36 77° ENE 22:47:23 10° N
PSLV R/B 4.2 22:46:03 27° ENE 22:46:07 27° ENE 22:48:34 10° N
Cosmos 2366 rocket 3.9 22:40:05 10° N 22:46:17 89° E 22:50:17 23° S
CZ-3A R/B 1.7 22:50:01 10° WSW 22:51:31 23° WNW 22:51:31 23° WNW
Lacrosse 5 rocket 3.1 22:51:44 10° NW 22:55:54 32° NNE 22:59:32 13° E
Meteor 1-4 Rocket 3.3 22:53:25 10° NNW 22:56:51 44° W 22:58:16 28° SSW
Terra 1.8 22:55:30 33° SSE 22:57:38 77° ENE 23:02:24 10° N
Cosmos 1602 Rocket 3.6 22:57:24 25° SSW 22:59:50 76° W 23:04:11 10° N
Cosmos 2082 Rocket 2.8 22:55:16 10° SW 23:00:51 59° WNW 23:06:27 10° NNE
Cosmos 1269 Rocket 3.9 23:01:07 23° SSW 23:04:28 78° ESE 23:09:47 10° NNE
Cosmos 1420 Rocket 4.3 23:01:19 10° NNW 23:06:29 58° WSW 23:08:59 29° S
DMSP B5D2-2 4.1 23:03:16 10° NNE 23:08:36 84° WNW 23:11:57 23° SSW
Cosmos 1805 3.3 23:06:06 10° N 23:09:58 62° E 23:10:43 50° SE
SPOT 5 4.4 23:07:20 14° SW 23:10:10 25° W 23:13:48 10° NW
Cosmos 1048 Rocket 3.9 23:08:12 22° SSW 23:11:34 88° WNW 23:16:48 10° NNE
Meteor 2-14 Rocket 4.5 23:06:20 10° NNW 23:12:25 74° W 23:15:45 28° S
deb Chang Zheng 4 3.5 23:08:49 10° NNE 23:13:08 73° ESE 23:14:26 43° S
Cosmos 1110 Rocket 4.3 23:11:32 10° NNW 23:16:43 54° ENE 23:18:39 35° ESE
Cosmos 1697 Rocket 3.5 23:11:40 10° NW 23:16:55 42° WSW 23:19:38 25° SSW
Cosmos 1758 3.4 23:13:29 10° N 23:17:26 59° E 23:18:04 51° ESE
Cosmos 389 Rocket 2.8 23:15:03 10° N 23:18:26 47° ENE 23:18:31 47° E
USA 267 4.1 23:17:36 10° ENE 23:22:58 28° SE 23:22:58 28° SE
Spot 4 3.8 23:21:37 43° SE 23:23:08 73° ENE 23:27:57 10° N
Lacrosse 5 2.7 23:25:30 32° ESE 23:25:30 32° ESE 23:29:19 10° ENE
CARTOSAT-1 4.0 23:24:03 37° SSW 23:25:26 53° W 23:29:41 10° NNW
Cosmos 2360 4.3 23:20:09 10° NNW 23:25:51 71° WSW 23:28:04 38° S
Iridium 2 3.8 23:23:14 10° N 23:27:01 66° W 23:27:42 53° SW
SL-16 R/B 2.6 23:21:39 10° NNW 23:27:14 54° ENE 23:29:33 33° ESE
Timation 2 Rocket 4.3 23:21:21 10° SW 23:27:39 66° WNW 23:33:45 10° NNE
ISS -1.3 23:26:34 10° NW 23:29:15 22° N 23:31:56 10° NE
Cosmos 1934 Rocket 4.4 23:23:22 10° N 23:29:34 51° ENE 23:32:02 34° SE
NOSS 3-1 (C) 4.1 23:22:34 10° NW 23:30:04 72° NE 23:34:52 28° SE
SeaSat 1 4.1 23:30:48 16° E 23:33:33 25° NE 23:37:33 10° N
IGS 5A 4.2 23:32:35 36° SW 23:33:42 45° W 23:37:43 10° NNW
Cosmos 1833 Rocket 4.1 23:28:47 10° WSW 23:33:55 36° NW 23:39:07 10° NNE
CZ-2C R/B 4.5 23:33:01 23° ESE 23:35:18 31° ENE 23:40:15 10° N
DELTA 2 DEB (DPAF) 4.1 23:34:36 54° SSE 23:35:37 84° ENE 23:40:07 10° NNW
SL-19 R/B 4.3 23:32:06 10° N 23:37:24 69° WNW 23:40:12 28° SSW
ATLAS CENTAUR R/B 1.3 23:34:35 10° NNW 23:38:13 55° NE 23:38:30 54° ENE
Cosmos 1271 Rocket 3.7 23:36:08 10° NNW 23:39:48 39° W 23:40:35 35° SW
Cosmos 1842 4.0 23:38:51 36° SW 23:39:58 49° WNW 23:43:49 10° N
CZ-4C R/B 3.0 23:45:31 82° W 23:45:31 82° W 23:49:11 10° NNW
Cosmos 1758 Rocket 3.4 23:47:43 65° S 23:48:20 85° E 23:52:43 10° N
Cosmos 1733 3.2 23:44:51 10° N 23:48:40 64° E 23:48:41 64° E
Cosmos 2251 Rocket 3.6 23:47:56 49° SSE 23:49:03 59° ESE 23:54:21 10° NNE
Cosmos 1544 4.2 23:45:53 10° NNW 23:49:12 34° W 23:49:33 34° WSW
H-2A R/B 3.4 23:48:48 27° SW 23:50:09 33° W 23:54:15 10° NNW
